User: anonymous   Login
Location: Oshawa
(43.9000°N, 78.8670°W)
Time: 15:58:23
(UTC-04:00)
Language:

Cosmos 1500 - Orbit

View from above orbital plane
View from above orbital plane
View from above satellite
View from above satellite

Ground track
Ground track

The orbit data is extracted from the following two-line orbital elements,

1 14372U 83099A   15242.53021272  .00001783  00000-0  93016-4 0  9994
2 14372 082.5134 271.6000 0015948 199.5844 273.9993 15.15214416738274
Epoch (UTC): 30 August 2015 12:43:30
Eccentricity: 0.0015948
inclination: 82.5134°
perigee height: 509 km
apogee height: 531 km
right ascension of ascending node: 271.6000°
argument of perigee: 199.5844°
revolutions per day: 15.15214416
mean anomaly at epoch: 273.9993°
orbit number at epoch: 73827

The dashed part of the orbit path shows where the satellite is in the earth's shadow,  

DLR